Terminal Aerodrome Forecast
Issued by NWS

Home | Current Version | Previous Version | Text Only | Print | Product List | Glossary On
Versions: 1 2 3 4 5 6 7 8 9 10 11 12
648
FTPA31 PHFO 122344
TAFHKO
TAF
PHKO 122344Z 1300/1324 22009KT P6SM FEW050
     FM130500 VRB06KT P6SM SCT050
     FM130900 09005KT P6SM SKC
     FM132100 22009KT P6SM SCT050
      AMD NOT SKED=

USA.gov is the U.S. government's official web portal to all federal, state and local government web resources and services.